Location: Eboldshausen
(51.7766°N, 10.0050°E)
Time: 13:27:15
(UTC+00:00)

CZ-2D R/B - Visible Passes

Search period start: 14 February 2026 00:00
Search period end: 24 February 2026 00:00
Orbit: 388 x 399 km, 97.4° (Epoch: 13 February)

Date Brightness Start Highest point End Pass type
(mag) Time Alt. Az. Time Alt. Az. Time Alt. Az.
14 Feb 4.8 05:43:35 10° NNE 05:46:24 32° E 05:49:11 10° SSE visible
14 Feb 5.3 17:43:47 10° SSW 17:46:22 25° W 17:48:59 10° NW visible
16 Feb 5.6 05:30:50 10° NE 05:33:20 23° E 05:35:49 10° SSE visible
16 Feb 4.5 17:30:24 10° SSW 17:33:15 36° W 17:36:07 10° NNW visible
17 Feb 6.4 18:11:10 10° WSW 18:12:40 13° W 18:14:10 10° WNW visible
18 Feb 6.2 05:17:58 10° NE 05:19:58 16° E 05:21:59 10° SE visible
18 Feb 3.5 17:16:53 10° S 17:19:53 55° W 17:22:54 10° NNW visible
19 Feb 5.9 17:56:53 10° SW 17:59:06 18° W 18:01:19 10° NW visible
20 Feb 6.6 05:05:17 10° ENE 05:06:20 11° E 05:07:22 10° ESE visible
21 Feb 5.0 05:42:45 10° NNE 05:45:32 31° E 05:48:17 10° SSE visible
21 Feb 5.2 17:42:38 10° SSW 17:45:16 26° W 17:47:55 10° NW visible
23 Feb 5.8 05:29:06 10° NE 05:31:32 21° E 05:33:56 10° SSE visible
23 Feb 4.3 17:28:19 10° S 17:31:12 39° W 17:34:06 10° NNW visible
